Kivalina Airport
PAVL : now visible

Airfield :











YOU CAN JOIN US ON...

 
LOGIN :

Register | Disclaimer

   EN    FR    IT 

 









Legend :    VFR   Marginal VFR   IFR   Intensive IFR   Very Intensive IFR
Visi :
Ceiling :
>= 8 km
>= 3000ft
5 to 8 km
1000 to 3000 ft
1500m to 5 km
500 to 1000 ft
800 to 1500m
200 to 500 ft
< 800m
< 200 ft
Symbols :   Thunderstorms  Fog  Heavy snow  Heavy precipitations  Wind > 20 kt






- Airport Elevation : 13 ft
- IATA code : KVL


PAVL - Kivalina

CURRENT METAR :
  • 260053Z AUTO 09022G33KT 6SM HZ OVC033 M02/M05 A2886 RMK AO2 PK WND 10036/0026 SLP772 T10221050 TSNO

EXPIRED METARs :
  • 260050Z AUTO 09022G34KT 6SM HZ OVC030 M02/M05 A2886 RMK AO2 PK WND 10036/0026 TSNO
  • 260026Z AUTO 10025G36KT 6SM HZ BKN026 OVC033 M02/M05 A2886 RMK AO2 PK WND 10036/0026 T10221050 TSNO
  • 252353Z AUTO 11025G32KT 6SM HZ SCT033 OVC042 M02/M06 A2886 RMK AO2 PK WND 11036/2300 UPE11 SLP774 P0000 60000 T10221056 10000 21028 53003 TSNO
  • 252253Z AUTO 10026G35KT 6SM UP SCT032 OVC044 M02/M05 A2885 RMK AO2 PK WND 12045/2156 UPB08E13B42 SLP770 P0000 T10171050 TSNO

TAF N/A
PAZA FIR / North America



MET'MAP, your aeronautical weather chart ! - Copyright ORBIFLY December 2007 - Disclaimer

ORBIFLY MET'MAP TEAM :

Programming & Development : Alexandra Zaïnal
Concept & original design : Baudouin d'Aumeries
Assistance for programming : Marc-Olivier Méhu
Technical & hardware support : Manuel Goepfert

Contact : metmap@orbifly.com




SOURCES & CREDITS :

   NOAA       Earth
Advisory